This is the latest recevied weather packets stored in our database for station/object K7SKM. If no packets are shown the sender has not sent any weather packets the latest 10 day(s).
| Time | Temp. | Humidity | Pressure | Rain* | Wind** | Luminosity | Snow |
|---|---|---|---|---|---|---|---|
| 1777849142 | 28.33° C | 34% | 1014.7 hPa | 0 mm | - | 419 W/m² | - |
| 1777848838 | 27.78° C | 35% | 1014.7 hPa | 0 mm | - | 418 W/m² | - |
| 1777848534 | 27.78° C | 34% | 1014.9 hPa | 0 mm | - | 348 W/m² | - |
| 1777848231 | 28.33° C | 35% | 1015 hPa | 0 mm | - | 169 W/m² | - |
| 1777847929 | 27.78° C | 35% | 1015.2 hPa | 0 mm | - | 429 W/m² | - |
| 1777847627 | 27.22° C | 36% | 1015 hPa | 0 mm | - | 431 W/m² | - |
| 1777847322 | 27.78° C | 35% | 1015.2 hPa | 0 mm | - | 436 W/m² | - |
| 1777847021 | 28.33° C | 35% | 1015.3 hPa | 0 mm | - | 437 W/m² | - |
| 1777846718 | 27.78° C | 35% | 1015.4 hPa | 0 mm | - | 440 W/m² | - |
| 1777846417 | 27.78° C | 35% | 1015.3 hPa | 0 mm | - | 440 W/m² | - |
| 1777846112 | 27.78° C | 37% | 1015.5 hPa | 0 mm | - | 442 W/m² | - |
| 1777845810 | 27.22° C | 36% | 1015.5 hPa | 0 mm | - | 365 W/m² | - |
| 1777845506 | 27.22° C | 37% | 1015.3 hPa | 0 mm | - | 442 W/m² | - |
| 1777845204 | 27.22° C | 37% | 1015.6 hPa | 0 mm | - | 399 W/m² | - |
| 1777844901 | 27.22° C | 37% | 1015.5 hPa | 0 mm | - | 444 W/m² | - |
| 1777844598 | 26.67° C | 38% | 1015.9 hPa | 0 mm | - | 447 W/m² | - |
| 1777844296 | 27.78° C | 36% | 1015.8 hPa | 0 mm | - | 451 W/m² | - |
| 1777843994 | 27.22° C | 37% | 1015.8 hPa | 0 mm | - | 454 W/m² | - |
| 1777843690 | 27.78° C | 36% | 1015.7 hPa | 0 mm | - | 453 W/m² | - |
| 1777843388 | 27.22° C | 37% | 1015.8 hPa | 0 mm | - | 453 W/m² | - |
| 1777843085 | 27.78° C | 38% | 1016 hPa | 0 mm | - | 454 W/m² | - |
| 1777842782 | 27.22° C | 39% | 1015.9 hPa | 0 mm | - | 452 W/m² | - |
| 1777842481 | 27.22° C | 39% | 1015.9 hPa | 0 mm | - | 448 W/m² | - |
| 1777842180 | 26.11° C | 40% | 1015.8 hPa | 0 mm | - | 444 W/m² | - |
| 1777841874 | 26.67° C | 39% | 1016 hPa | 0 mm | - | 450 W/m² | - |
* Rain latest hour (hover to see other rain measurements)
** Current wind speed in m/s (hover to see current wind gust speed)